| time (UTC) | temp C | wind direction | speed KPH | gust KPH | rain 1hr cm | rain 24hr cm | rain mn cm | humidity % | barometer mb |
| 20260503070802 | 15 | 172 | 1.6 | 4.8 | 0.00 | 0.00 | 0.00 | 64 | 1018.6 |
| 20260503050803 | 11 | 123 | 0.0 | 4.8 | 0.00 | 0.00 | 0.00 | 77 | 1018.6 |
| 20260503050302 | 11 | 355 | 0.0 | 4.8 | 0.00 | 0.00 | 0.00 | 77 | 1018.6 |
| 20260503040303 | 11 | 308 | 1.6 | 4.8 | 0.00 | 0.00 | 0.00 | 76 | 1018.5 |
| 20260503030803 | 11 | 59 | 0.0 | 0.0 | 0.00 | 0.00 | 0.00 | 78 | 1018.5 |
| 20260503030303 | 11 | 86 | 1.6 | 4.8 | 0.00 | 0.00 | 0.00 | 78 | 1018.5 |
| 20260503020803 | 12 | 84 | 1.6 | 3.2 | 0.00 | 0.00 | 0.00 | 74 | 1018.5 |
| 20260503020302 | 12 | 23 | 1.6 | 3.2 | 0.00 | 0.00 | 0.00 | 74 | 1018.5 |
| 20260503010804 | 12 | 24 | 0.0 | 1.6 | 0.00 | 0.00 | 0.00 | 73 | 1018.5 |
| 20260503000804 | 13 | 47 | 0.0 | 1.6 | 0.00 | 0.00 | 0.00 | 71 | 1018.5 |
| 20260503000304 | 13 | 46 | 0.0 | 3.2 | 0.00 | 0.00 | 0.00 | 71 | 1018.5 |
| 20260502230804 | 13 | 5 | 0.0 | 1.6 | 0.00 | 0.00 | 0.00 | 69 | 1018.5 |
| 20260502220803 | 15 | 350 | 0.0 | 1.6 | 0.00 | 0.00 | 0.00 | 67 | 1018.5 |
| 20260502210803 | 15 | 327 | 0.0 | 1.6 | 0.00 | 0.00 | 0.00 | 65 | 1018.5 |
| 20260502210303 | 16 | 332 | 0.0 | 4.8 | 0.00 | 0.00 | 0.00 | 62 | 1018.5 |
| 20260502200803 | 17 | 94 | 1.6 | 4.8 | 0.00 | 0.00 | 0.00 | 57 | 1018.5 |
| 20260502200304 | 17 | 71 | 3.2 | 8.0 | 0.00 | 0.00 | 0.00 | 58 | 1018.5 |
| 20260502190804 | 18 | 355 | 1.6 | 3.2 | 0.00 | 0.00 | 0.00 | 50 | 1018.5 |
| 20260502190304 | 18 | 17 | 1.6 | 4.8 | 0.00 | 0.00 | 0.00 | 50 | 1018.5 |
| 20260502180804 | 20 | 340 | 1.6 | 4.8 | 0.00 | 0.00 | 0.00 | 44 | 1018.5 |
| 20260502170304 | 22 | 268 | 3.2 | 19.3 | 0.00 | 0.00 | 0.00 | 39 | 1018.5 |
| 20260502160802 | 23 | 284 | 8.0 | 16.1 | 0.00 | 0.00 | 0.00 | 36 | 1018.5 |
| 20260502160301 | 23 | 263 | 8.0 | 22.5 | 0.00 | 0.00 | 0.00 | 35 | 1018.5 |
| 20260502150802 | 24 | 248 | 3.2 | 14.5 | 0.00 | 0.00 | 0.00 | 34 | 1018.4 |
| 20260502150302 | 24 | 251 | 8.0 | 20.9 | 0.00 | 0.00 | 0.00 | 33 | 1018.4 |
| 20260502130302 | 23 | 242 | 9.7 | 19.3 | 0.00 | 0.00 | 0.00 | 33 | 1018.4 |
| 20260502120302 | 23 | 233 | 4.8 | 20.9 | 0.00 | 0.00 | 0.00 | 33 | 1018.4 |
| 20260502110302 | 21 | 227 | 9.7 | 19.3 | 0.00 | 0.00 | 0.00 | 41 | 1018.4 |
| 20260502100803 | 21 | 254 | 3.2 | 12.9 | 0.00 | 0.00 | 0.00 | 43 | 1018.4 |
| 20260502090803 | 17 | 257 | 3.2 | 9.7 | 0.00 | 0.00 | 0.00 | 50 | 1018.4 |
| 20260502090303 | 17 | 216 | 3.2 | 9.7 | 0.00 | 0.00 | 0.00 | 49 | 1018.3 |